Time,TemperatureF,DewpointF,PressureIn,WindDirection,WindDirectionDegrees,WindSpeedMPH,WindSpeedGustMPH,Humidity,HourlyPrecipIn,Conditions,Clouds,dailyrainin,SoftwareType,DateUTC
2013-01-09 04:22:00,54.0,54.0,30.15,North,360,8.0,-999.0,100,-99.99,,,-99.99,,2013-01-09 04:22:00,
2013-01-09 04:32:00,54.0,54.0,30.15,North,360,8.0,-999.0,100,-99.99,,,-99.99,,2013-01-09 04:32:00,
2013-01-09 04:42:00,54.0,54.0,30.15,North,360,8.0,-999.0,100,-99.99,,,-99.99,,2013-01-09 04:42:00,
2013-01-09 04:52:00,54.0,54.0,30.15,North,360,8.0,-999.0,100,-99.99,,,-99.99,,2013-01-09 04:52:00,
2013-01-09 05:00:00,54.0,52.0,30.14,NNE,20,9.0,-999.0,93,-99.99,,,-99.99,,2013-01-09 05:00:00,
2013-01-09 05:22:00,54.0,52.0,30.14,NNE,20,9.0,-999.0,93,-99.99,,,-99.99,,2013-01-09 05:22:00,
2013-01-09 05:32:00,54.0,52.0,30.14,NNE,20,9.0,-999.0,93,-99.99,,,-99.99,,2013-01-09 05:32:00,
2013-01-09 05:42:00,54.0,52.0,30.14,NNE,20,9.0,-999.0,93,-99.99,,,-99.99,,2013-01-09 05:42:00,
2013-01-09 05:52:00,54.0,52.0,30.14,NNE,20,9.0,-999.0,93,-99.99,,,-99.99,,2013-01-09 05:52:00,
2013-01-09 06:00:00,53.0,52.0,30.14,East,80,7.0,-999.0,96,-99.99,,,-99.99,,2013-01-09 06:00:00,
2013-01-09 06:11:00,53.0,52.0,30.14,East,80,7.0,-999.0,96,-99.99,,,-99.99,,2013-01-09 06:11:00,
2013-01-09 06:22:00,53.0,52.0,30.14,East,80,7.0,-999.0,96,-99.99,,,-99.99,,2013-01-09 06:22:00,
2013-01-09 06:32:00,53.0,52.0,30.14,East,80,7.0,-999.0,96,-99.99,,,-99.99,,2013-01-09 06:32:00,
2013-01-09 06:42:00,53.0,52.0,30.14,East,80,7.0,-999.0,96,-99.99,,,-99.99,,2013-01-09 06:42:00,
2013-01-09 06:52:00,53.0,52.0,30.14,East,80,7.0,-999.0,96,-99.99,,,-99.99,,2013-01-09 06:52:00,
2013-01-09 07:00:00,52.0,50.0,30.15,NNE,30,9.0,-999.0,93,-99.99,,,-99.99,,2013-01-09 07:00:00,
2013-01-09 07:11:00,52.0,50.0,30.15,NNE,30,9.0,-999.0,93,-99.99,,,-99.99,,2013-01-09 07:11:00,
2013-01-09 07:22:00,52.0,50.0,30.15,NNE,30,9.0,-999.0,93,-99.99,,,-99.99,,2013-01-09 07:22:00,
2013-01-09 07:32:00,52.0,50.0,30.15,NNE,30,9.0,-999.0,93,-99.99,,,-99.99,,2013-01-09 07:32:00,
2013-01-09 07:42:00,52.0,50.0,30.15,NNE,30,9.0,-999.0,93,-99.99,,,-99.99,,2013-01-09 07:42:00,
2013-01-09 07:52:00,52.0,50.0,30.15,NNE,30,9.0,-999.0,93,-99.99,,,-99.99,,2013-01-09 07:52:00,
2013-01-09 08:00:00,55.0,50.0,30.18,NNE,20,6.0,-999.0,81,-99.99,,,-99.99,,2013-01-09 08:00:00,
2013-01-09 08:11:00,55.0,50.0,30.18,NNE,20,6.0,-999.0,81,-99.99,,,-99.99,,2013-01-09 08:11:00,
2013-01-09 08:22:00,55.0,50.0,30.18,NNE,20,6.0,-999.0,81,-99.99,,,-99.99,,2013-01-09 08:22:00,
2013-01-09 08:32:00,55.0,50.0,30.18,NNE,20,6.0,-999.0,81,-99.99,,,-99.99,,2013-01-09 08:32:00,
2013-01-09 08:42:00,55.0,50.0,30.18,NNE,20,6.0,-999.0,81,-99.99,,,-99.99,,2013-01-09 08:42:00,
2013-01-09 08:52:00,55.0,50.0,30.18,NNE,20,6.0,-999.0,81,-99.99,,,-99.99,,2013-01-09 08:52:00,
2013-01-09 09:00:00,54.0,52.0,30.18,ENE,70,9.0,-999.0,90,-99.99,,,-99.99,,2013-01-09 09:00:00,
2013-01-09 09:11:00,54.0,52.0,30.18,ENE,70,9.0,-999.0,90,-99.99,,,-99.99,,2013-01-09 09:11:00,
2013-01-09 09:22:00,54.0,52.0,30.18,ENE,70,9.0,-999.0,90,-99.99,,,-99.99,,2013-01-09 09:22:00,
2013-01-09 09:32:00,54.0,52.0,30.18,ENE,70,9.0,-999.0,90,-99.99,,,-99.99,,2013-01-09 09:32:00,
2013-01-09 09:42:00,54.0,52.0,30.18,ENE,70,9.0,-999.0,90,-99.99,,,-99.99,,2013-01-09 09:42:00,
2013-01-09 09:52:00,54.0,52.0,30.18,ENE,70,9.0,-999.0,90,-99.99,,,-99.99,,2013-01-09 09:52:00,
2013-01-09 10:00:00,55.0,52.0,30.16,ENE,70,7.0,-999.0,87,-99.99,,,-99.99,,2013-01-09 10:00:00,
2013-01-09 10:22:00,55.0,52.0,30.16,ENE,70,7.0,-999.0,87,-99.99,,,-99.99,,2013-01-09 10:22:00,
2013-01-09 10:32:00,55.0,52.0,30.16,ENE,70,7.0,-999.0,87,-99.99,,,-99.99,,2013-01-09 10:32:00,
2013-01-09 10:42:00,55.0,52.0,30.16,ENE,70,7.0,-999.0,87,-99.99,,,-99.99,,2013-01-09 10:42:00,
2013-01-09 10:52:00,55.0,52.0,30.16,ENE,70,7.0,-999.0,87,-99.99,,,-99.99,,2013-01-09 10:52:00,
2013-01-09 11:00:00,55.0,52.0,30.16,ENE,70,8.0,-999.0,87,-99.99,,,-99.99,,2013-01-09 11:00:00,
2013-01-09 11:11:00,55.0,52.0,30.16,ENE,70,8.0,-999.0,87,-99.99,,,-99.99,,2013-01-09 11:11:00,
2013-01-09 11:22:00,55.0,52.0,30.16,ENE,70,8.0,-999.0,87,-99.99,,,-99.99,,2013-01-09 11:22:00,
2013-01-09 11:32:00,55.0,52.0,30.16,ENE,70,8.0,-999.0,87,-99.99,,,-99.99,,2013-01-09 11:32:00,
2013-01-09 11:42:00,55.0,52.0,30.16,ENE,70,8.0,-999.0,87,-99.99,,,-99.99,,2013-01-09 11:42:00,
2013-01-09 11:52:00,55.0,52.0,30.16,ENE,70,8.0,-999.0,87,-99.99,,,-99.99,,2013-01-09 11:52:00,
2013-01-09 14:00:00,55.0,48.0,30.10,SW,230,11.0,-999.0,76,-99.99,,,-99.99,,2013-01-09 14:00:00,
2013-01-09 14:32:00,55.0,48.0,30.10,SW,230,11.0,-999.0,76,-99.99,,,-99.99,,2013-01-09 14:32:00,
2013-01-09 14:42:00,55.0,48.0,30.10,SW,230,11.0,-999.0,76,-99.99,,,-99.99,,2013-01-09 14:42:00,
2013-01-09 14:52:00,55.0,48.0,30.10,SW,230,11.0,-999.0,76,-99.99,,,-99.99,,2013-01-09 14:52:00,
2013-01-09 16:00:00,54.0,43.0,30.07,South,180,7.0,-999.0,66,-99.99,,,-99.99,,2013-01-09 16:00:00,
2013-01-09 16:11:00,54.0,43.0,30.07,South,180,7.0,-999.0,66,-99.99,,,-99.99,,2013-01-09 16:11:00,
2013-01-09 16:22:00,54.0,43.0,30.07,South,180,7.0,-999.0,66,-99.99,,,-99.99,,2013-01-09 16:22:00,
2013-01-09 16:32:00,54.0,43.0,30.07,South,180,7.0,-999.0,66,-99.99,,,-99.99,,2013-01-09 16:32:00,
2013-01-09 16:42:00,54.0,43.0,30.07,South,180,7.0,-999.0,66,-99.99,,,-99.99,,2013-01-09 16:42:00,
2013-01-09 16:52:00,54.0,43.0,30.07,South,180,7.0,-999.0,66,-99.99,,,-99.99,,2013-01-09 16:52:00,
2013-01-09 17:00:00,54.0,46.0,30.06,South,180,17.0,-999.0,76,-99.99,,,-99.99,,2013-01-09 17:00:00,
2013-01-09 17:11:00,54.0,46.0,30.06,South,180,17.0,-999.0,76,-99.99,,,-99.99,,2013-01-09 17:11:00,
2013-01-09 17:22:00,54.0,46.0,30.06,South,180,17.0,-999.0,76,-99.99,,,-99.99,,2013-01-09 17:22:00,
2013-01-09 17:32:00,54.0,46.0,30.06,South,180,17.0,-999.0,76,-99.99,,,-99.99,,2013-01-09 17:32:00,
2013-01-09 17:42:00,54.0,46.0,30.06,South,180,17.0,-999.0,76,-99.99,,,-99.99,,2013-01-09 17:42:00,
2013-01-09 17:52:00,54.0,46.0,30.06,South,180,17.0,-999.0,76,-99.99,,,-99.99,,2013-01-09 17:52:00,
2013-01-09 18:00:00,54.0,50.0,30.07,South,170,18.0,-999.0,87,-99.99,,,-99.99,,2013-01-09 18:00:00,
2013-01-09 18:12:00,54.0,50.0,30.07,South,170,18.0,-999.0,87,-99.99,,,-99.99,,2013-01-09 18:12:00,
2013-01-09 18:22:00,54.0,50.0,30.07,South,170,18.0,-999.0,87,-99.99,,,-99.99,,2013-01-09 18:22:00,
2013-01-09 18:32:00,54.0,50.0,30.07,South,170,18.0,-999.0,87,-99.99,,,-99.99,,2013-01-09 18:32:00,
2013-01-09 18:42:00,54.0,50.0,30.07,South,170,18.0,-999.0,87,-99.99,,,-99.99,,2013-01-09 18:42:00,
2013-01-09 18:52:00,54.0,50.0,30.07,South,170,18.0,-999.0,87,-99.99,,,-99.99,,2013-01-09 18:52:00,
2013-01-09 19:00:00,55.0,48.0,30.34,SSE,150,23.0,-999.0,76,-99.99,,,-99.99,,2013-01-09 19:00:00,
2013-01-09 19:12:00,55.0,48.0,30.34,SSE,150,23.0,-999.0,76,-99.99,,,-99.99,,2013-01-09 19:12:00,
2013-01-09 19:22:00,55.0,48.0,30.34,SSE,150,23.0,-999.0,76,-99.99,,,-99.99,,2013-01-09 19:22:00,
2013-01-09 19:32:00,55.0,48.0,30.34,SSE,150,23.0,-999.0,76,-99.99,,,-99.99,,2013-01-09 19:32:00,
2013-01-09 19:42:00,55.0,48.0,30.34,SSE,150,23.0,-999.0,76,-99.99,,,-99.99,,2013-01-09 19:42:00,
2013-01-09 19:52:00,55.0,48.0,30.34,SSE,150,23.0,-999.0,76,-99.99,,,-99.99,,2013-01-09 19:52:00,